Monterey, CA

10:04 PM PDT on August 25, 2016 (GMT -0700)
Monterey Peninsula

Weather History for KMRY - June, 2013

Change the Weather History Date:

Friday, June 14, 2013

  Actual Average Record
Temperature  
Mean Temperature 58 °F 59 °F  
Max Temperature 66 °F 67 °F 97 °F (2000)
Min Temperature 49 °F 52 °F 48 °F (2001)
Degree Days  
Heating Degree Days 7    
Month to date heating degree days 77  
Since 1 June heating degree days 77  
Since 1 July heating degree days 3223  
Cooling Degree Days 0    
Month to date cooling degree days 0  
Year to date cooling degree days 7  
Since 1 June cooling degree days 0  
Growing Degree Days 6 (Base 50)    
Moisture  
Dew Point 49 °F    
Average Humidity 73    
Maximum Humidity 89    
Minimum Humidity 56    
Precipitation  
Precipitation 0.00 in - 0.01 in (2011)
Month to date precipitation 0.00  
Year to date precipitation 3.11  
Since 1 July precipitation 11.35  
Sea Level Pressure  
Sea Level Pressure 29.97 in    
Wind  
Wind Speed 6 mph (SW)    
Max Wind Speed 12 mph    
Max Gust Speed 17 mph    
Visibility 8 miles    
Events Fog    
T = Trace of Precipitation, MM = Missing Value Source: NWS Daily Summary

Daily Weather History Graph

Daily Weather History Graph

Search for Another Location

Airport or City:

Trip Planner

Search our weather history database for the weather conditions in past years. The results will help you decide how hot, cold, wet, or windy it might be!

Date:

Astronomy

Jun. 14, 2013 Rise Set
Actual Time 5:48 AM PDT 8:27 PM PDT
Civil Twilight 5:17 AM PDT 8:57 PM PDT
Nautical Twilight 4:39 AM PDT 9:35 PM PDT
Astronomical Twilight 3:57 AM PDT 10:18 PM PDT
Moon 11:20 AM PDT (6/14) No Moon Set
Length of Visible Light 15h 39m
Length of Day
14h 38m
Waxing Crescent, 31% of the Moon is Illuminated
Jun 14
Waxing Crescent
Jun 16
First Quarter
Jun 23
Full
Jun 29
Last Quarter
Jul 8
New

Hourly Weather History & Observations

Time (PDT) Temp. Dew Point Humidity Pressure Visibility Wind Dir Wind Speed Gust Speed Precip Events Conditions
12:54 AM 52.0 °F 48.0 °F 86% 30.05 in 9.0 mi South 4.6 mph - N/A   Clear
1:54 AM 52.0 °F 48.0 °F 86% 30.02 in 9.0 mi South 3.5 mph - N/A   Clear
2:54 AM 50.0 °F 45.0 °F 83% 30.01 in 10.0 mi ESE 3.5 mph - N/A   Clear
3:06 AM 50.0 °F 44.6 °F 82% 29.97 in 10.0 mi ESE 3.5 mph - N/A   Partly Cloudy
3:24 AM 50.0 °F 44.6 °F 82% 29.96 in 10.0 mi Calm Calm - N/A   Mostly Cloudy
3:54 AM 51.1 °F 46.0 °F 83% 29.99 in 10.0 mi East 3.5 mph - N/A   Overcast
4:54 AM 51.1 °F 48.9 °F 92% 29.99 in 2.0 mi Calm Calm - N/A   Overcast
5:03 AM 51.8 °F 50.0 °F 94% 29.95 in 1.8 mi Calm Calm - N/A   Overcast
5:11 AM 51.8 °F 50.0 °F 94% 29.95 in 2.5 mi Calm Calm - N/A   Overcast
5:54 AM 51.1 °F 48.9 °F 92% 29.99 in 1.0 mi East 5.8 mph - N/A   Overcast
6:02 AM 51.8 °F 48.2 °F 88% 29.95 in 0.5 mi East 5.8 mph - N/A Fog Fog
6:11 AM 51.8 °F 48.2 °F 88% 29.95 in 0.2 mi East 5.8 mph - N/A Fog Fog
6:32 AM 48.2 °F 46.4 °F 93% 29.94 in 1.2 mi East 8.1 mph - N/A   Mostly Cloudy
6:34 AM 48.2 °F 46.4 °F 93% 29.94 in 3.0 mi East 6.9 mph - N/A   Mostly Cloudy
6:42 AM 50.0 °F 48.2 °F 94% 29.94 in 10.0 mi ESE 4.6 mph - N/A   Scattered Clouds
6:54 AM 51.1 °F 48.0 °F 89% 29.98 in 10.0 mi Calm Calm - N/A   Partly Cloudy
7:54 AM 55.9 °F 48.0 °F 75% 29.98 in 10.0 mi Calm Calm - N/A   Clear
8:54 AM 60.1 °F 50.0 °F 69% 29.99 in 10.0 mi Variable 3.5 mph - N/A   Clear
9:54 AM 62.1 °F 51.1 °F 67% 29.99 in 9.0 mi WNW 5.8 mph - N/A   Clear
10:54 AM 60.1 °F 51.1 °F 72% 29.99 in 10.0 mi NW 5.8 mph - N/A   Clear
11:54 AM 64.0 °F 51.1 °F 63% 29.99 in 10.0 mi NW 5.8 mph - N/A   Clear
12:54 PM 61.0 °F 51.1 °F 70% 29.99 in 9.0 mi NW 6.9 mph - N/A   Clear
1:54 PM 63.0 °F 51.1 °F 65% 29.97 in 9.0 mi NW 9.2 mph - N/A   Clear
2:54 PM 63.0 °F 51.1 °F 65% 29.96 in 10.0 mi NW 9.2 mph - N/A   Clear
3:54 PM 64.9 °F 50.0 °F 58% 29.95 in 10.0 mi WNW 9.2 mph - N/A   Clear
4:54 PM 64.9 °F 50.0 °F 58% 29.94 in 10.0 mi NW 8.1 mph - N/A   Clear
5:54 PM 64.9 °F 48.0 °F 54% 29.93 in 10.0 mi WNW 9.2 mph - N/A   Clear
6:54 PM 62.1 °F 48.9 °F 62% 29.93 in 10.0 mi West 8.1 mph - N/A   Clear
7:54 PM 59.0 °F 48.9 °F 69% 29.94 in 10.0 mi West 6.9 mph - N/A   Clear
8:54 PM 55.0 °F 48.9 °F 80% 29.94 in 9.0 mi SSW 8.1 mph - N/A   Clear
9:54 PM 55.0 °F 48.9 °F 80% 29.96 in 9.0 mi SSW 8.1 mph - N/A   Mostly Cloudy
10:33 PM 53.6 °F 48.2 °F 82% 29.92 in 9.0 mi SW 9.2 mph - N/A   Mostly Cloudy
10:54 PM 54.0 °F 48.9 °F 83% 29.95 in 9.0 mi SW 9.2 mph - N/A   Overcast
11:54 PM 53.1 °F 48.9 °F 86% 29.94 in 9.0 mi SW 9.2 mph - N/A   Overcast